Location: Ferchesar
(52.6477°N, 12.4298°E)
Time: 06:08:29
(UTC+02:00)

Transit 4A - Pass Details

Date: 02 March 2021
Orbit: 869 x 976 km, 66.8° (Epoch: 12 April)

Event Time Altitude Azimuth Distance (km) Brightness Sun altitude
Rises 20:59:30 0° 312° (NW) 3,572 12.1 -28.5°
Reaches altitude 10° 21:03:10 10° 290° (WNW) 2,600 11.2 -29.0°
Maximum altitude 21:06:22 15° 258° (WSW) 2,235 10.4 -29.4°
Drops below altitude 10° 21:09:33 10° 225° (SW) 2,554 10.3 -29.8°
Enters shadow 21:11:56 - 208° (SSW) 3,129 10.6 -30.1°
Sets 21:13:07 0° 203° (SSW) 3,470 - -30.2°
